SCP
0 0 0 0 0 0 0 0 0 0 0 1 2 2 3 3 3 4 5 5 5 5 5 5 5 4 4 3 2 2 3 3 3 3 3 3 3 3 3 3 3 3 3 3
0 0 0 0 0 0 0 0 0 0 0 1 1 2 3 3 3 3 4 4 5 5 5 5 4 3 3 2 2 2 2 2 2 2 2 2 2 2 2 3 3 2 2 2
0 0 0 0 0 0 0 0 0 0 0 0 1 1 2 2 2 2 3 3 4 5 5 4 3 2 2 1 1 1 1 1 1 1 1 1 1 2 2 2 2 2 1 1
0 0 0 0 0 0 0 0 0 0 0 0 0 0 1 1 1 2 2 3 4 4 4 3 3 2 1 1 1 1 1 1 1 1 1 1 1 1 1 1 1 1 1 1
0 0 0 0 0 0 0 0 0 0 0 0 0 0 0 1 1 1 1 2 2 2 2 2 2 1 1 1 1 1 1 1 1 2 2 1 1 1 1 1 1 1 1 1
0 0 0 0 0 0 0 0 0 0 0 0 0 0 0 0 0 1 1 1 1 1 1 1 1 1 1 1 1 1 1 1 1 1 1 1 1 1 0 0 0 0 0 0
0 0 0 0 0 0 0 0 0 0 0 0 0 0 0 0 0 0 0 0 1 1 1 1 1 1 1 1 1 1 2 2 1 1 1 1 1 1 0 0 0 0 0 0
0 0 0 0 0 0 0 0 0 0 0 0 0 0 0 0 0 0 0 0 0 0 0 0 0 1 1 1 1 1 2 2 2 1 1 1 1 1 0 0 0 0 0 0
0 0 0 0 0 0 0 0 0 0 0 0 0 0 0 0 0 0 0 0 0 0 0 0 0 0 0 0 0 1 1 1 2 1 1 1 0 0 0 0 0 0 0 0
0 0 0 0 0 0 0 0 0 0 0 0 0 0 0 0 0 0 0 0 0 0 0 0 0 0 0 0 0 0 1 1 1 1 1 0 0 0 0 0 0 0 0 0
0 0 0 0 0 0 0 0 0 0 0 0 0 0 0 0 0 0 0 0 0 0 0 0 0 0 0 0 0 0 0 0 0 0 0 0 0 0 0 0 0 0 0 0
0 0 0 0 0 0 0 0 0 0 0 0 0 0 0 0 0 0 0 0 0 0 0 0 0 0 0 0 0 0 0 0 0 0 0 0 0 0 0 0 0 0 0 0
0 0 0 0 0 0 0 0 0 0 0 0 0 0 0 0 0 0 0 0 0 0 0 0 0 0 0 0 0 0 0 0 0 0 0 0 0 0 0 0 0 0 0 0
0 0 0 0 0 0 0 0 0 0 0 0 0 0 0 0 0 0 0 0 0 0 0 0 0 0 0 0 0 0 0 0 0 0 0 0 0 0 0 0 0 0 0 0
0 0 0 0 0 0 0 0 0 0 0 0 0 0 0 0 0 0 0 0 0 0 0 0 0 0 0 0 0 0 0 0 0 0 0 0 0 0 0 0 0 0 0 0
0 0 0 0 0 0 0 0 0 0 0 0 0 0 0 0 0 0 0 0 0 0 0 0 0 0 0 0 0 0 0 0 0 0 0 0 0 0 0 0 0 0 0 0
0 0 0 0 0 0 0 0 0 0 0 0 0 0 0 0 0 0 0 0 0 0 0 0 0 0 0 0 0 0 0 0 0 0 0 0 0 0 0 0 0 0 0 0
0 0 0 0 0 0 0 0 0 0 0 0 0 0 0 0 0 0 0 0 0 0 0 0 0 0 0 0 0 0 0 0 0 0 0 0 0 0 0 0 0 0 0 0
0 0 0 0 0 0 0 0 0 0 0 0 0 0 0 0 0 0 0 0 0 0 0 0 0 0 0 0 0 0 0 0 0 0 0 0 0 0 0 0 0 0 0 0
0 0 0 0 0 0 0 0 0 0 0 0 0 0 0 0 0 0 0 0 0 0 0 0 0 0 0 0 0 0 0 0 0 0 0 0 0 0 0 0 0 0 0 0
0 0 0 0 0 0 0 0 0 0 0 0 0 0 0 0 0 0 0 0 0 0 0 0 0 0 0 0 0 0 0 0 0 0 0 0 0 0 0 0 0 0 0 0
0 0 0 0 0 0 0 0 0 0 0 0 0 0 0 0 0 0 0 0 0 0 0 0 0 0 0 0 0 0 0 0 0 0 0 0 0 0 0 0 0 0 0 0
0 0 0 0 0 0 0 0 0 0 0 0 0 0 0 0 0 0 0 0 0 0 0 0 0 0 0 0 0 0 0 0 0 0 0 0 0 0 0 0 0 0 0 0
0 0 0 0 0 0 0 0 0 0 0 0 0 0 0 0 0 0 0 0 0 0 0 0 0 0 0 0 0 0 0 0 0 0 0 0 0 0 0 0 0 0 0 0
0 0 0 0 0 0 0 0 0 0 0 0 0 0 0 0 0 0 0 0 0 0 0 0 0 0 0 0 0 0 0 0 0 0 0 0 0 0 0 0 0 0 0 0
0 0 0 0 0 0 0 0 0 0 0 0 0 0 0 0 0 0 0 0 0 0 0 0 0 0 0 0 0 0 0 0 0 0 0 0 0 0 0 0 0 0 0 0
Wind_Speed
3 4 1 5 5 2 1 0 2 4 3 3 3 3 5 5 5 4 4 4 5 4 2 2 4 5 5 5 5 4 4 3 2 1 1 2 3 3 3 3 4 5 5 5
5 3 5 3 3 2 1 1 2 3 4 3 3 4 4 4 2 1 4 4 4 3 2 1 2 2 3 4 5 4 4 4 3 2 2 2 2 2 2 3 3 4 4 4
2 5 2 1 2 3 1 2 1 2 3 5 3 5 5 4 4 2 2 3 3 5 6 4 4 4 3 4 6 5 5 4 3 2 1 0 1 2 2 2 3 4 5 5
3 4 1 2 1 4 1 3 2 0 2 3 3 1 5 3 4 2 1 3 4 5 5 5 6 5 6 6 4 4 5 4 3 2 2 2 1 2 3 2 3 5 5 6
4 3 2 1 1 3 2 3 3 2 2 2 4 1 7 3 2 3 3 4 6 6 7 7 7 7 6 5 4 4 4 4 3 3 3 2 2 2 2 2 4 4 5 5
4 3 1 1 1 2 3 6 6 5 5 3 2 0 5 3 4 4 4 5 6 6 6 6 6 5 4 4 4 4 4 4 4 4 3 4 4 3 3 4 4 4 4 4
7 7 5 1 2 4 6 7 6 7 6 4 3 1 6 6 4 4 4 5 5 4 4 5 6 5 4 4 5 4 5 5 5 5 5 5 5 4 4 4 4 4 4 4
2 6 5 3 1 2 1 7 7 3 4 5 4 3 5 4 5 4 3 4 6 7 6 6 6 6 6 5 5 5 5 6 5 5 5 5 5 3 3 4 4 4 4 5
4 5 5 2 2 4 3 2 5 6 2 2 5 5 7 10 12 11 10 10 10 9 9 8 8 7 6 6 6 5 6 6 6 6 6 5 5 5 4 4 3 3 4 5
6 3 5 6 4 4 2 7 5 5 4 3 5 3 5 10 11 10 10 9 9 9 10 10 9 9 8 7 6 5 4 6 6 6 6 5 5 5 4 3 4 4 5 5
3 3 5 6 3 3 2 4 5 4 4 5 4 5 1 3 5 5 7 7 8 8 9 9 9 9 8 9 9 8 7 7 7 6 6 6 6 5 4 4 4 4 4 5
3 5 2 5 5 2 1 3 5 2 3 4 3 5 2 2 3 3 5 6 6 7 7 7 8 9 10 11 11 10 9 8 8 7 6 6 6 5 5 5 5 4 4 5
6 6 3 8 7 4 1 1 3 4 4 4 4 5 1 3 4 4 5 6 6 7 8 8 9 10 10 10 10 10 10 9 9 8 7 7 6 6 6 6 5 4 4 4
7 5 6 7 8 4 3 3 1 5 3 5 7 4 2 5 6 6 6 6 6 7 8 9 8 8 8 8 8 10 10 9 10 9 8 8 8 7 7 6 5 4 3 3
5 4 6 6 5 1 2 3 2 2 4 6 3 4 1 4 5 6 6 7 8 9 9 9 9 8 8 9 9 9 10 10 10 10 9 9 8 6 6 6 5 4 3 3
3 3 2 3 3 2 1 2 2 3 3 3 5 3 2 4 5 7 8 8 8 10 11 11 11 10 10 10 10 10 10 10 10 10 10 8 7 6 6 6 6 5 4 2
1 5 3 4 3 1 2 4 3 4 4 3 2 2 5 7 9 10 10 9 9 11 12 12 12 11 10 10 9 9 9 9 9 10 9 8 7 7 6 6 6 6 5 4
5 4 3 1 1 1 1 4 6 6 4 5 3 5 7 9 11 11 8 6 9 11 12 12 11 11 11 10 10 9 9 8 8 9 9 8 7 8 7 6 7 7 5 5
3 5 3 2 0 2 2 3 4 2 1 4 5 8 10 10 8 6 6 6 9 11 12 11 11 11 10 11 10 9 10 9 9 9 9 9 8 8 8 7 7 7 6 6
6 5 5 3 1 1 2 7 8 2 1 3 6 9 10 9 7 7 8 10 13 13 12 11 11 10 10 11 9 8 10 10 10 10 9 9 8 8 9 8 7 6 7 8
7 7 5 3 1 2 5 11 8 2 5 8 8 9 10 7 9 11 12 13 13 13 14 13 11 10 10 10 8 9 10 11 11 10 9 9 8 8 9 8 7 6 7 8
3 4 4 3 3 3 7 7 4 4 7 7 9 10 10 12 13 14 14 13 13 14 13 12 11 11 10 9 8 10 11 12 11 10 10 10 9 9 8 8 7 6 7 9
3 1 1 2 1 2 2 2 6 6 8 9 8 11 13 13 14 15 13 13 13 13 13 11 11 11 11 10 9 11 12 11 10 10 10 10 10 9 8 8 8 6 7 8
3 3 2 2 1 3 5 6 7 7 9 10 12 13 13 14 15 16 14 13 12 13 12 12 11 12 12 11 11 11 12 11 10 11 10 9 9 9 8 7 6 6 6 8
3 3 3 1 4 7 6 7 8 9 11 13 13 13 13 14 16 16 14 14 13 13 13 11 12 13 14 13 12 12 12 11 11 11 10 9 9 9 8 7 7 7 7 9
1 1 1 3 6 5 9 9 10 11 12 14 15 14 13 14 17 17 16 14 14 14 13 13 13 14 14 13 13 12 11 10 10 9 9 8 7 7 7 7 7 9 10 12
Wind_Direction
23 53 266 234 203 194 149 213 294 287 319 47 50 30 3 17 65 93 101 105 108 103 89 90 102 109 115 120 136 153 152 160 150 154 190 222 246 253 257 259 263 268 273 273
19 315 251 215 181 159 157 102 305 308 356 57 52 26 356 24 31 149 148 143 139 124 117 120 129 147 150 154 160 169 172 175 176 178 190 211 242 271 276 293 299 299 303 297
225 264 288 125 116 120 144 172 227 285 353 28 39 3 349 355 14 56 109 142 161 172 180 191 199 206 193 191 184 180 187 186 187 180 147 21 352 323 316 313 312 317 318 309
284 280 337 70 123 138 220 242 225 163 56 340 30 312 303 337 345 7 150 179 200 209 206 209 215 219 220 218 202 191 195 196 197 175 168 181 210 253 259 278 291 304 308 310
306 318 357 26 281 179 193 56 68 62 109 45 23 105 287 334 316 273 243 231 230 227 223 227 228 228 232 226 212 207 205 211 206 195 195 200 229 243 269 283 291 297 303 306
281 307 299 251 41 58 106 70 50 46 63 52 324 175 282 273 246 253 251 249 249 245 242 247 254 253 252 239 226 215 214 229 221 214 212 211 230 249 274 288 294 299 301 302
339 335 336 2 42 19 68 72 26 8 13 271 281 212 254 274 270 246 247 260 281 297 296 296 296 287 273 254 242 230 224 237 231 223 224 223 226 235 250 269 281 295 303 304
346 312 309 342 215 221 124 130 149 193 231 279 321 246 257 325 347 359 2 2 2 353 342 328 321 316 307 289 267 249 240 245 239 231 233 230 227 230 243 254 265 278 285 292
192 266 294 328 308 149 138 143 158 135 171 271 288 296 320 2 8 14 20 23 14 5 2 356 350 343 331 321 303 275 260 258 251 240 236 234 229 229 240 253 261 272 281 293
171 240 301 325 23 29 100 137 98 115 153 250 287 309 315 336 344 360 12 12 7 9 11 8 5 359 352 344 337 330 295 275 270 255 241 239 231 231 236 247 260 273 285 296
132 162 308 355 23 339 36 77 93 108 154 168 251 268 341 329 339 358 4 9 8 8 6 6 5 2 1 2 0 352 340 320 303 283 260 246 240 234 233 242 254 268 284 296
114 118 292 291 280 273 263 143 141 136 252 189 205 252 14 4 355 5 4 2 4 6 5 5 4 6 7 2 357 352 343 331 316 301 278 254 244 234 234 243 250 259 277 291
139 107 37 346 339 343 24 139 143 130 134 172 191 236 60 19 12 3 359 354 357 1 4 4 5 5 1 355 350 345 339 331 322 313 294 270 250 238 237 239 243 248 266 289
115 119 162 207 230 248 289 300 165 142 182 221 217 185 358 351 349 344 345 345 350 356 358 357 354 350 345 341 338 337 334 329 327 318 301 280 262 244 238 235 235 239 249 271
111 171 216 235 247 222 251 307 349 183 215 211 202 132 353 328 326 323 327 338 351 353 351 347 341 334 332 331 330 329 328 328 328 323 310 289 277 260 242 230 228 230 234 248
87 179 199 277 266 206 190 358 22 39 34 87 99 83 336 319 324 329 332 335 342 345 343 337 332 327 324 321 318 320 321 323 325 324 316 308 293 274 255 235 223 220 220 229
145 144 145 262 286 95 348 354 66 63 22 46 76 357 334 334 334 327 324 326 329 333 329 324 319 313 308 304 301 302 303 311 321 321 317 318 309 289 272 249 223 217 209 203
142 126 147 250 45 219 47 45 86 95 61 45 33 346 336 324 313 302 301 310 318 318 314 309 306 303 300 297 295 294 297 301 308 315 317 313 313 304 290 265 238 220 202 197
119 128 109 101 147 114 96 26 7 333 68 38 355 330 324 318 309 290 289 301 300 298 294 292 290 290 291 293 293 296 296 295 297 302 308 311 304 300 293 277 255 228 204 197
46 68 88 73 5 354 2 326 323 277 178 17 331 314 315 325 316 291 294 303 303 300 298 295 293 291 291 290 291 289 290 291 289 289 293 299 299 295 290 278 267 239 212 201
9 20 48 50 36 61 333 319 335 4 314 312 303 297 298 287 270 281 292 296 293 294 296 296 295 292 288 288 291 287 287 283 282 284 287 291 290 290 287 277 269 246 217 199
36 27 18 15 14 357 343 12 35 278 277 282 288 288 288 285 286 291 294 293 293 294 294 294 291 288 287 286 287 286 283 280 284 285 285 287 287 288 294 282 275 254 219 199
55 36 27 62 101 246 292 246 253 258 276 284 284 287 292 293 293 294 292 290 290 287 287 286 281 283 284 281 278 278 280 282 285 284 281 282 284 282 284 277 273 262 225 202
12 354 100 83 344 285 282 271 270 273 275 282 287 290 292 290 290 291 290 287 285 283 282 280 278 279 280 279 276 272 277 281 282 282 281 280 281 281 281 273 264 257 233 211
331 6 64 6 286 298 289 280 285 295 296 295 295 294 290 289 290 289 288 286 283 282 278 274 271 271 274 274 272 273 276 277 277 279 280 279 276 274 276 273 263 254 243 222
308 99 142 245 251 254 274 282 294 295 291 293 296 294 287 285 286 288 287 285 284 282 280 277 273 271 272 272 272 273 272 271 273 278 279 275 273 272 271 274 280 259 245 230